DW8947 Weather Reports


time (UTC)temp
C
wind
direction
speed
KPH
gust
KPH
rain 1hr
cm
rain 24hr
cm
rain mn
cm
humidity
%
barometer
mb
20260507093704 11 93 0.0 3.2 0.00 0.00 0.00 91 1019.5
20260507092704 11 93 0.0 1.6 0.00 0.00 0.00 91 1019.5
20260507092204 11 93 0.0 3.2 0.00 0.00 0.00 91 1019.5
20260507090704 11 93 0.0 0.0 0.00 0.00 0.00 91 1019.4
20260507090204 11 93 0.0 0.0 0.00 0.00 0.00 91 1019.5
20260507085204 11 93 0.0 0.0 0.00 0.00 0.00 91 1019.6
20260507082704 11 93 0.0 0.0 0.00 0.00 0.00 91 1019.5
20260507081704 11 93 0.0 0.0 0.00 0.00 0.00 91 1019.4
20260507080704 11 93 0.0 1.6 0.00 0.00 0.00 91 1019.3
20260507075704 11 94 0.0 3.2 0.00 0.00 0.00 91 1019.3
20260507074704 11 94 0.0 1.6 0.00 0.00 0.00 91 1019.3
20260507073204 11 134 0.0 3.2 0.00 0.00 0.00 91 1019.3
20260507072704 11 134 0.0 3.2 0.00 0.00 0.00 91 1019.1
20260507072204 11 134 0.0 3.2 0.00 0.00 0.00 91 1019.2
20260507071703 11 134 0.0 3.2 0.00 0.00 0.00 90 1019.2
20260507071204 11 134 0.0 3.2 0.00 0.00 0.00 90 1019.2
20260507070204 11 134 0.0 0.0 0.00 0.00 0.00 90 1019.2
20260507065704 11 134 0.0 3.2 0.00 0.00 0.00 90 1019.2
20260507065204 11 134 0.0 1.6 0.00 0.00 0.00 90 1019.2
20260507064704 11 134 0.0 3.2 0.00 0.00 0.00 90 1019.1
20260507064204 11 134 0.0 1.6 0.00 0.00 0.00 90 1019.2
20260507063204 12 134 0.0 3.2 0.00 0.00 0.00 89 1019.1
20260507062203 12 134 0.0 3.2 0.00 0.00 0.00 89 1019.1
20260507054703 12 134 0.0 0.0 0.00 0.00 0.00 89 1019.2
20260507054204 12 134 0.0 0.0 0.00 0.00 0.00 88 1019.2
20260507053704 12 134 0.0 0.0 0.00 0.00 0.00 88 1019.2
20260507053204 12 134 0.0 0.0 0.00 0.00 0.00 88 1019.2
20260507052204 12 134 0.0 0.0 0.00 0.00 0.00 88 1019.3
20260507045704 12 134 0.0 3.2 0.00 0.00 0.00 88 1019.3
20260507045204 12 134 0.0 1.6 0.00 0.00 0.00 88 1019.2
20260507044204 12 134 0.0 0.0 0.00 0.00 0.00 87 1019.2
20260507043704 12 134 0.0 3.2 0.00 0.00 0.00 87 1019.2
20260507043204 12 134 0.0 0.0 0.00 0.00 0.00 87 1019.2
20260507042704 12 134 0.0 1.6 0.00 0.00 0.00 87 1019.2
20260507042204 12 134 0.0 3.2 0.00 0.00 0.00 87 1019.2
20260507040204 12 134 0.0 3.2 0.00 0.00 0.00 87 1019.1
20260507035204 12 134 0.0 3.2 0.00 0.00 0.00 86 1019.1
20260507034703 12 134 0.0 3.2 0.00 0.00 0.00 86 1019.1
20260507033704 12 134 0.0 3.2 0.00 0.00 0.00 86 1019.0
20260507031204 12 85 0.0 1.6 0.00 0.00 0.00 86 1018.9
20260507030204 12 85 0.0 0.0 0.00 0.00 0.00 86 1018.9
20260507025704 13 85 0.0 0.0 0.00 0.00 0.00 85 1018.8
20260507025204 13 85 0.0 0.0 0.00 0.00 0.00 85 1018.8
20260507023704 13 85 0.0 1.6 0.00 0.00 0.00 85 1018.8
20260507023204 13 85 0.0 0.0 0.00 0.00 0.00 85 1018.7
20260507021203 13 85 0.0 3.2 0.00 0.00 0.00 85 1018.7
20260507020204 13 85 0.0 0.0 0.00 0.00 0.00 85 1018.7
20260507015704 13 85 0.0 0.0 0.00 0.00 0.00 84 1018.6
20260507015204 13 85 0.0 0.0 0.00 0.00 0.00 84 1018.6
20260507012703 13 85 0.0 3.2 0.00 0.00 0.00 83 1018.7
20260507012204 13 85 0.0 3.2 0.00 0.00 0.00 83 1018.7
20260507011203 13 85 0.0 3.2 0.00 0.00 0.00 83 1018.8
20260507010703 13 85 0.0 1.6 0.00 0.00 0.00 82 1018.7
20260507010204 13 85 0.0 3.2 0.00 0.00 0.00 82 1018.7
20260507005204 13 85 0.0 3.2 0.00 0.00 0.00 81 1018.7
20260507003704 13 85 0.0 3.2 0.00 0.00 0.00 81 1018.8
20260507002703 13 138 0.0 3.2 0.00 0.00 0.00 82 1018.7
20260507002203 13 150 0.0 3.2 0.00 0.00 0.00 82 1018.7
20260507001204 13 150 0.0 3.2 0.00 0.00 0.00 81 1018.7
20260506234204 13 163 0.0 1.6 0.00 0.00 0.00 80 1018.7
20260506233705 13 163 0.0 3.2 0.00 0.00 0.00 80 1018.7
20260506233205 13 163 0.0 3.2 0.00 0.00 0.00 81 1018.8
20260506232705 13 163 0.0 3.2 0.00 0.00 0.00 80 1018.8
20260506230705 14 163 0.0 3.2 0.00 0.00 0.00 78 1018.8
20260506225705 14 163 0.0 3.2 0.00 0.00 0.00 79 1018.8
20260506224704 14 163 0.0 3.2 0.00 0.00 0.00 78 1018.9
20260506224205 14 163 0.0 3.2 0.00 0.00 0.00 77 1018.9
20260506223705 14 163 0.0 0.0 0.00 0.00 0.00 77 1018.9
20260506222705 14 163 0.0 3.2 0.00 0.00 0.00 76 1018.9
20260506221705 14 163 0.0 3.2 0.00 0.00 0.00 76 1018.9
20260506221205 14 163 0.0 3.2 0.00 0.00 0.00 76 1018.9
20260506220705 14 163 0.0 3.2 0.00 0.00 0.00 77 1019.0
20260506220204 14 163 0.0 3.2 0.00 0.00 0.00 77 1018.9
20260506215705 14 163 0.0 3.2 0.00 0.00 0.00 77 1018.9
20260506213705 13 163 0.0 3.2 0.00 0.00 0.00 76 1019.0
20260506213205 13 163 0.0 3.2 0.00 0.00 0.00 75 1018.9
20260506211705 14 249 0.0 3.2 0.00 0.00 0.00 76 1019.0
20260506210705 14 242 0.0 3.2 0.00 0.00 0.00 76 1019.1
20260506205205 13 210 0.0 3.2 0.00 0.00 0.00 77 1019.0
20260506204705 13 338 0.0 3.2 0.00 0.00 0.00 77 1019.0
20260506203704 13 318 0.0 1.6 0.00 0.00 0.00 76 1018.9
20260506203205 13 318 0.0 3.2 0.00 0.00 0.00 78 1018.9
20260506200704 13 221 0.0 3.2 0.00 0.00 0.00 80 1018.9
20260506195705 13 196 0.0 3.2 0.00 0.00 0.00 80 1018.9
20260506194705 13 182 0.0 3.2 0.00 0.00 0.00 80 1018.9
20260506193704 13 200 0.0 1.6 0.00 0.00 0.00 79 1018.8
20260506191705 13 197 0.0 1.6 0.00 0.00 0.00 79 1018.6
20260506191205 13 169 0.0 3.2 0.00 0.00 0.00 79 1018.6
20260506190705 13 169 0.0 3.2 0.00 0.00 0.00 78 1018.6
20260506190205 13 144 0.0 3.2 0.00 0.00 0.00 79 1018.6
20260506185205 13 187 0.0 3.2 0.00 0.00 0.00 81 1018.6
20260506184204 13 270 0.0 3.2 0.00 0.00 0.00 82 1018.6
20260506183705 13 289 0.0 3.2 0.00 0.00 0.00 83 1018.6
20260506183204 12 233 0.0 3.2 0.00 0.00 0.00 82 1018.6
20260506182704 12 249 0.0 3.2 0.00 0.00 0.00 84 1018.5
20260506181704 12 98 1.6 3.2 0.00 0.00 0.00 84 1018.6
20260506180705 12 291 0.0 3.2 0.00 0.00 0.00 86 1018.5
20260506180205 12 181 0.0 1.6 0.00 0.00 0.00 88 1018.5
20260506174704 12 327 0.0 3.2 0.00 0.00 0.00 91 1018.6
20260506172704 12 114 0.0 3.2 0.00 0.00 0.00 90 1018.2
20260506172205 12 114 1.6 3.2 0.00 0.00 0.00 90 1018.1
20260506171204 12 114 0.0 3.2 0.00 0.00 0.00 90 1018.3
20260506165705 12 106 0.0 1.6 0.00 0.00 0.00 90 1018.2
20260506162705 12 160 0.0 3.2 0.00 0.00 0.00 90 1018.3
20260506162205 12 158 0.0 3.2 0.00 0.00 0.00 90 1018.3
20260506161705 12 87 0.0 3.2 0.00 0.00 0.00 90 1018.2
20260506161204 12 82 0.0 3.2 0.00 0.00 0.00 90 1018.2
20260506160206 11 65 0.0 3.2 0.00 0.00 0.00 91 1017.9
20260506155706 12 170 1.6 3.2 0.00 0.00 0.00 91 1017.7
20260506155205 11 173 0.0 3.2 0.00 0.00 0.00 91 1017.6
20260506154705 11 205 0.0 3.2 0.00 0.00 0.00 91 1017.6
20260506152705 11 152 0.0 3.2 0.00 0.00 0.00 90 1017.7
20260506152205 11 152 0.0 1.6 0.00 0.00 0.00 90 1017.8
20260506151204 12 152 0.0 3.2 0.00 0.00 0.00 89 1017.7
20260506150704 12 152 0.0 3.2 0.00 0.00 0.00 89 1017.9
20260506145705 12 152 0.0 3.2 0.00 0.00 0.00 88 1018.0
20260506143204 11 144 0.0 3.2 0.00 0.00 0.00 89 1017.5
20260506142705 11 102 0.0 3.2 0.00 0.00 0.00 89 1017.7
20260506142205 11 105 0.0 3.2 0.00 0.00 0.00 89 1017.6
20260506141705 11 105 0.0 3.2 0.00 0.00 0.00 89 1017.6
20260506140705 11 105 0.0 3.2 0.00 0.00 0.00 89 1017.6
20260506134705 11 215 0.0 3.2 0.00 0.00 0.00 89 1017.3
20260506133705 11 215 0.0 3.2 0.00 0.00 0.00 89 1017.4
20260506131704 11 237 0.0 3.2 0.00 0.00 0.00 90 1017.2
20260506131205 11 237 0.0 3.2 0.00 0.00 0.00 90 1017.3
20260506130705 11 237 0.0 3.2 0.00 0.00 0.00 91 1017.3
20260506130204 11 237 0.0 3.2 0.00 0.00 0.00 91 1017.2
20260506125204 11 237 0.0 1.6 0.00 0.00 0.00 91 1017.0
20260506124205 11 237 0.0 3.2 0.00 0.00 0.00 91 1016.7
20260506123705 11 237 0.0 3.2 0.00 0.00 0.00 91 1016.8
20260506122705 11 237 0.0 3.2 0.00 0.00 0.00 91 1016.9
20260506122204 11 237 0.0 1.6 0.00 0.00 0.00 91 1017.0
20260506121204 11 237 0.0 1.6 0.00 0.00 0.00 91 1016.8
20260506120705 11 237 0.0 3.2 0.00 0.00 0.00 91 1016.8
20260506115705 11 237 0.0 3.2 0.00 0.00 0.00 91 1016.8
20260506115205 11 237 0.0 3.2 0.00 0.00 0.00 90 1016.7
20260506114704 11 237 0.0 3.2 0.00 0.00 0.00 90 1016.6
20260506114204 11 237 0.0 3.2 0.00 0.00 0.00 90 1016.6
20260506113705 11 237 0.0 3.2 0.00 0.00 0.00 91 1016.6
20260506112204 11 237 0.0 3.2 0.00 0.00 0.00 91 1016.4
20260506111705 11 237 0.0 1.6 0.00 0.00 0.00 91 1016.3
20260506111205 11 221 0.0 3.2 0.00 0.00 0.00 92 1016.3
20260506110205 11 208 0.0 3.2 0.00 0.00 0.00 92 1016.3
20260506103205 11 181 0.0 3.2 0.00 0.00 0.00 93 1016.1
20260506102204 11 181 0.0 0.0 0.00 0.00 0.00 93 1016.1
20260506101205 10 181 0.0 0.0 0.00 0.00 0.00 93 1016.1
20260506100205 10 181 0.0 0.0 0.00 0.00 0.00 93 1016.0
20260506095205 11 181 0.0 0.0 0.00 0.00 0.00 92 1015.9
20260506094705 11 181 0.0 0.0 0.00 0.00 0.00 92 1015.8
20260506094205 11 181 0.0 0.0 0.00 0.00 0.00 92 1015.8